This demonstration page uses our WeatherBlox Daily Observations layout. Learn more.

Hourly Observations for August 13, 2020

Temp ( °F °C ) Dew Point ( °F °C ) Humidity (%) Winds ( mph kmh ) Pressure ( in mb ) Visibility ( mi km ) Precip ( " mm )
12:53 am 00:53 Clear 69 20.6 67 19.4 93 93 Calm 30.06 1018 10 16.0934 0 0
1:53 am 01:53 Clear 68 20 66 18.9 93 93 Calm 30.06 1018 10 16.0934 0 0
2:53 am 02:53 Clear 68 20 66 18.9 93 93 Calm 30.05 1018 10 16.0934 0 0
3:53 am 03:53 Clear 67 19.4 66 18.9 97 97 Calm 30.06 1018 10 16.0934 0 0
4:53 am 04:53 Clear 67 19.4 65 18.3 93 93 Calm 30.06 1018 10 16.0934 0 0
5:53 am 05:53 Clear 67 19.4 66 18.9 97 97 Calm 30.06 1018 10 16.0934 0 0
6:53 am 06:53 Sunny 66 18.9 65 18.3 96 96 Calm 30.07 1018 8 12.87472 0 0
7:53 am 07:53 Sunny 70 21.1 66 18.9 87 87 Calm 30.08 1019 10 16.0934 0 0
8:53 am 08:53 Sunny 74 23.3 67 19.4 79 79 E 5 7 30.08 1019 10 16.0934 0 0
9:53 am 09:53 Sunny 78 25.6 68 20 71 71 Calm 30.07 1018 10 16.0934 0 0
10:53 am 10:53 Mostly Cloudy 81 27.2 69 20.6 67 67 Calm 30.08 1019 10 16.0934 0 0
11:53 am 11:53 Sunny 85 29.4 69 20.6 59 59 E 8 13 30.06 1018 10 16.0934 0 0
12:53 pm 12:53 Mostly Sunny 85 29.4 69 20.6 59 59 VRB 5 7 30.06 1018 10 16.0934 0 0
1:53 pm 13:53 Mostly Cloudy 86 30 68 20 55 55 E 5 7 30.05 1018 10 16.0934 0 0
2:53 pm 14:53 Sunny 86 30 68 20 55 55 VRB 5 7 30.02 1017 10 16.0934 0 0
3:53 pm 15:53 Partly Cloudy 89 31.7 69 20.6 52 52 NNE 7 11 29.99 1016 10 16.0934 0 0
4:53 pm 16:53 Mostly Cloudy 89 31.7 67 19.4 48 48 E 6 9 29.98 1015 10 16.0934 0 0
5:53 pm 17:53 Mostly Cloudy 88 31.1 69 20.6 54 54 NE 6 9 29.97 1015 10 16.0934 0 0
6:53 pm 18:53 Mostly Sunny 86 30 68 20 55 55 N 7 11 29.97 1015 10 16.0934 0 0
7:53 pm 19:53 Sunny 82 27.8 67 19.4 60 60 N 6 9 29.99 1016 10 16.0934 0 0
8:53 pm 20:53 Clear 80 26.7 67 19.4 64 64 N 5 7 30 1016 10 16.0934 0 0
9:53 pm 21:53 Clear 78 25.6 67 19.4 69 69 NNE 6 9 30.01 1016 10 16.0934 0 0
10:53 pm 22:53 Clear 77 25 66 18.9 69 69 NNE 6 9 30 1016 10 16.0934 0 0
11:53 pm 23:53 Clear 70 21.1 66 18.9 87 87 Calm 30 1016 10 16.0934 0 0

Powered by AerisWeather